User: anonymous   Login
Location: Unspecified
(0.0000°N, 0.0000°E)
Time: 13:11:11
(UTC+01:00)
Language:

ADEOS II - Orbit

View from above orbital plane
View from above orbital plane
View from above satellite
View from above satellite

Ground track
Ground track

The orbit data is extracted from the following two-line orbital elements,

1 27597U 02056A   14304.12216657  .00000381  00000-0  17365-3 0  4414
2 27597 098.2776 304.7381 0000280 116.3159 292.3267 14.26898472618482
Epoch (UTC): 31 October 2014 02:55:55
Eccentricity: 0.0000280
inclination: 98.2776°
perigee height: 802 km
apogee height: 802 km
right ascension of ascending node: 304.7381°
argument of perigee: 116.3159°
revolutions per day: 14.26898472
mean anomaly at epoch: 292.3267°
orbit number at epoch: 61848

The dashed part of the orbit path shows where the satellite is in the earth's shadow,  

DLR